Printer-friendly version

IAU Minor Planet Center

Minor Planet Center

MPEC 2006-U39 : 2006 UQ17

The following Minor Planet Electronic Circular may be linked-to from your own Web pages, but must not otherwise be redistributed electronically.


Read MPEC 2006-U38 Read MPEC 2006-U40


M.P.E.C. 2006-U39                                Issued 2006 Oct. 21, 11:50 UT

     The Minor Planet Electronic Circulars contain information on unusual
         minor planets and routine data on comets.  They are published
   on behalf of Commission 20 of the International Astronomical Union by the
          Minor Planet Center, Smithsonian Astrophysical Observatory,
                          Cambridge, MA 02138, U.S.A.

             Prepared using the Tamkin Foundation Computer Network

                              MPC@CFA.HARVARD.EDU
          URL http://cfa-www.harvard.edu/iau/mpc.html  ISSN 1523-6714

                                   2006 UQ17

Observations:
     K06U17Q* C2006 10 19.28500 01 17 18.26 -00 44 51.8          19.4 R EU039644
     K06U17Q  C2006 10 19.30539 01 17 16.79 -00 45 03.7          19.2 R EU039644
     K06U17Q  C2006 10 19.32566 01 17 15.36 -00 45 15.2          19.9 R EU039644
     K06U17Q  C2006 10 21.22702 01 15 25.35 -01 03 20.2          19.6 R EU039854
     K06U17Q  C2006 10 21.23449 01 15 24.80 -01 03 24.7          19.2 V EU039G96
     K06U17Q  C2006 10 21.23469 01 15 24.75 -01 03 24.3          19.6 R EU039854
     K06U17Q  C2006 10 21.23933 01 15 24.44 -01 03 27.4          19.2 V EU039G96
     K06U17Q  C2006 10 21.24236 01 15 24.25 -01 03 29.4          19.6 R EU039854
     K06U17Q  C2006 10 21.24425 01 15 24.08 -01 03 30.3          19.3 V EU039G96
     K06U17Q  C2006 10 21.24912 01 15 23.68 -01 03 33.0          19.3 V EU039G96
     K06U17Q  C2006 10 21.30927 01 15 18.93 -01 04 05.9                 EU039711
     K06U17Q  C2006 10 21.31926 01 15 18.19 -01 04 11.6          19.3 R EU039711
     K06U17Q  C2006 10 21.32925 01 15 17.46 -01 04 16.9          19.1 R EU039711

Observer details:
644 Palomar Mountain/NEAT.  Observers M. Brown, R. Bambery, K. Lawrence,
    M. Hicks, E. Helin, R. Thicksten.  1.2-m Schmidt + CCD.
711 McDonald Observatory.  Observer J. G. Ries.  0.76-m reflector + CCD
    + prime-focus corrector.
854 Sabino Canyon Observatory, Tucson.  Observer J. E. McGaha.  0.36-m f/10.0
    Schmidt-Cassegrain + CCD.
G96 Mt. Lemmon Survey.  Observer E. J. Christensen.  Measurers E. C. Beshore,
    E. J. Christensen, G. J. Garradd, A. R. Gibbs, A. D. Grauer, R. E. Hill,
    R. A. Kowalski, S. M. Larson, R. H. McNaught.  1.5-m reflector + CCD.

Orbital elements:
2006 UQ17                                           PHA, Earth MOID = 0.0365 AU
Epoch 2006 Sept. 22.0 TT = JDT 2454000.5                MPC
M 310.88066              (2000.0)            P               Q
n   0.51382132     Peri.    3.71743     -0.02251439     -0.99933851
a   1.5438128      Node    87.57418     +0.91651071     -0.03204320
e   0.3386538      Incl.    1.63802     +0.39937604     +0.01719794
P   1.92           H   21.9           G   0.15           U   9
Residuals in seconds of arc
061019 644  0.0   0.1+    061021 854  0.5-  0.4+    061021 711  0.0   0.0
061019 644  0.2-  0.1-    061021 G96  0.1+  0.0     061021 711  0.0   0.1-
061019 644  0.1+  0.0     061021 854  0.6+  0.4-    061021 711  0.1+  0.2+
061021 854  0.0   0.1+    061021 G96  0.2+  0.1-
061021 G96  0.1+  0.0     061021 G96  0.4-  0.1-

Ephemeris:
2006 UQ17                a,e,i = 1.54, 0.34, 2                   q = 1.0210
Date    TT    R. A. (2000) Decl.     Delta      r     Elong.  Phase     V
2006 10 22    01 14.64   -01 10.2    0.205    1.195   165.7    11.9    19.6
2006 11 01    01 04.31   -02 32.2    0.174    1.152   154.1    22.1    19.5
2006 11 11    00 55.60   -03 13.4    0.150    1.112   142.3    32.9    19.4
2006 11 21    00 51.60   -02 49.5    0.129    1.079   131.9    43.0    19.3
2006 12 01    00 55.61   -00 55.1    0.111    1.052   123.7    51.3    19.1
2006 12 11    01 10.94   +02 58.6    0.0928   1.033   118.7    56.8    18.9
2006 12 21    01 43.24   +09 42.0    0.0762   1.022   118.6    57.7    18.4
2006 12 31    02 44.57   +20 03.2    0.0639   1.022   125.7    51.4    17.9
2007 01 10    04 26.28   +31 05.8    0.0613   1.031   139.7    38.1    17.4
2007 01 20    06 20.58   +35 22.2    0.0726   1.049   152.3    25.9    17.5
2007 01 30    07 40.55   +33 33.9    0.0963   1.075   158.2    19.9    18.0
2007 02 09    08 26.71   +30 20.8    0.129    1.108   159.0    18.6    18.6
2007 02 19    08 54.51   +27 19.3    0.170    1.147   156.6    20.0    19.4
2007 03 01    09 13.97   +24 38.6    0.220    1.190   152.4    22.7    20.1
2007 03 11    09 29.82   +22 14.0    0.278    1.236   147.1    25.9    20.8
2007 03 21    09 44.32   +19 59.8    0.346    1.284   141.3    29.0    21.4
2007 03 31    09 58.70   +17 50.8    0.423    1.334   135.5    31.6    22.0

Timothy B. Spahr             (C) Copyright 2006 MPC           M.P.E.C. 2006-U39

Read MPEC 2006-U38 Read MPEC 2006-U40


Our Web policy. Index to the CBAT/MPC/ICQ pages.


Valid HTML 4.01!